| time (UTC) | temp C | wind direction | speed KPH | gust KPH | rain 1hr cm | rain 24hr cm | rain mn cm | humidity % | barometer mb |
| 20260505051406 | 14 | 220 | 0.0 | 0.0 | 0.00 | 0.00 | 0.00 | 68 | 1011.5 |
| 20260505050904 | 14 | 229 | 0.0 | 1.6 | 0.00 | 0.00 | 0.00 | 68 | 1011.3 |
| 20260505050403 | 13 | 227 | 0.0 | 0.0 | 0.00 | 0.00 | 0.00 | 68 | 1011.2 |
| 20260505041330 | 13 | 258 | 0.0 | 0.0 | 0.00 | 0.00 | 0.00 | 71 | 1011.2 |
| 20260505040827 | 13 | 250 | 0.0 | 0.0 | 0.00 | 0.00 | 0.00 | 72 | 1011.0 |
| 20260505040325 | 13 | 272 | 0.0 | 0.0 | 0.00 | 0.00 | 0.00 | 72 | 1011.3 |
| 20260505035821 | 13 | 326 | 0.0 | 0.0 | 0.00 | 0.00 | 0.00 | 71 | 1011.2 |
| 20260505035317 | 13 | 225 | 0.0 | 0.0 | 0.00 | 0.00 | 0.00 | 71 | 1011.2 |
| 20260505034814 | 13 | 228 | 0.0 | 0.0 | 0.00 | 0.00 | 0.00 | 69 | 1011.3 |
| 20260505034311 | 13 | 234 | 0.0 | 0.0 | 0.00 | 0.00 | 0.00 | 70 | 1011.2 |
| 20260505033808 | 13 | 237 | 0.0 | 0.0 | 0.00 | 0.00 | 0.00 | 72 | 1011.3 |
| 20260505033305 | 13 | 260 | 0.0 | 0.0 | 0.00 | 0.00 | 0.00 | 73 | 1011.3 |
| 20260505032803 | 13 | 253 | 0.0 | 0.0 | 0.00 | 0.00 | 0.00 | 72 | 1011.2 |
| 20260505032259 | 13 | 237 | 0.0 | 0.0 | 0.00 | 0.00 | 0.00 | 72 | 1011.5 |
| 20260505031756 | 13 | 280 | 0.0 | 0.0 | 0.00 | 0.00 | 0.00 | 72 | 1011.3 |
| 20260505031253 | 13 | 242 | 0.0 | 0.0 | 0.00 | 0.00 | 0.00 | 72 | 1011.2 |
| 20260505030750 | 13 | 244 | 0.0 | 0.0 | 0.00 | 0.00 | 0.00 | 71 | 1011.4 |
| 20260505030246 | 13 | 244 | 0.0 | 0.0 | 0.00 | 0.00 | 0.00 | 70 | 1011.2 |
| 20260505025741 | 13 | 241 | 0.0 | 0.0 | 0.00 | 0.00 | 0.00 | 71 | 1011.3 |
| 20260505025240 | 13 | 284 | 0.0 | 0.0 | 0.00 | 0.00 | 0.00 | 71 | 1011.4 |
| 20260505024738 | 13 | 279 | 0.0 | 0.0 | 0.00 | 0.00 | 0.00 | 72 | 1011.2 |
| 20260505024235 | 13 | 239 | 0.0 | 0.0 | 0.00 | 0.00 | 0.00 | 72 | 1011.3 |
| 20260505023732 | 13 | 268 | 0.0 | 0.0 | 0.00 | 0.00 | 0.00 | 71 | 1011.3 |
| 20260505023229 | 13 | 252 | 0.0 | 0.0 | 0.00 | 0.00 | 0.00 | 70 | 1011.4 |
| 20260505022726 | 13 | 252 | 0.0 | 0.0 | 0.00 | 0.00 | 0.00 | 70 | 1011.3 |
| 20260505022223 | 13 | 252 | 0.0 | 0.0 | 0.00 | 0.00 | 0.00 | 68 | 1011.2 |
| 20260505021720 | 14 | 280 | 0.0 | 0.0 | 0.00 | 0.00 | 0.00 | 68 | 1011.2 |
| 20260505021217 | 14 | 273 | 0.0 | 0.0 | 0.00 | 0.00 | 0.00 | 67 | 1011.4 |
| 20260505020713 | 15 | 257 | 0.0 | 0.0 | 0.00 | 0.00 | 0.00 | 65 | 1011.3 |
| 20260505020208 | 15 | 262 | 0.0 | 0.0 | 0.00 | 0.00 | 0.00 | 64 | 1011.5 |
| 20260505015706 | 16 | 260 | 0.0 | 0.0 | 0.00 | 0.00 | 0.00 | 61 | 1011.3 |
| 20260505015203 | 16 | 278 | 0.0 | 0.0 | 0.00 | 0.00 | 0.00 | 60 | 1011.5 |
| 20260505014659 | 16 | 88 | 0.0 | 0.0 | 0.00 | 0.00 | 0.00 | 60 | 1011.6 |
| 20260505014156 | 16 | 218 | 0.0 | 0.0 | 0.00 | 0.00 | 0.00 | 60 | 1011.5 |
| 20260505013654 | 16 | 67 | 0.0 | 0.0 | 0.00 | 0.00 | 0.00 | 59 | 1011.6 |
| 20260505013151 | 16 | 141 | 0.0 | 0.0 | 0.00 | 0.00 | 0.00 | 59 | 1011.5 |
| 20260505012649 | 17 | 215 | 1.6 | 3.2 | 0.00 | 0.00 | 0.00 | 59 | 1011.6 |
| 20260505012146 | 17 | 226 | 0.0 | 0.0 | 0.00 | 0.00 | 0.00 | 58 | 1011.5 |
| 20260505011641 | 18 | 195 | 1.6 | 4.8 | 0.00 | 0.00 | 0.00 | 58 | 1011.4 |
| 20260505011139 | 17 | 87 | 3.2 | 3.2 | 0.00 | 0.00 | 0.00 | 57 | 1011.3 |
| 20260505010639 | 17 | 85 | 3.2 | 3.2 | 0.00 | 0.00 | 0.00 | 57 | 1011.3 |
| 20260505010136 | 18 | 276 | 0.0 | 3.2 | 0.00 | 0.00 | 0.00 | 57 | 1011.4 |
| 20260505005632 | 18 | 109 | 0.0 | 1.6 | 0.00 | 0.00 | 0.00 | 55 | 1010.9 |
| 20260505005129 | 18 | 96 | 1.6 | 3.2 | 0.00 | 0.00 | 0.00 | 55 | 1011.0 |
| 20260505004627 | 18 | 76 | 0.0 | 1.6 | 0.00 | 0.00 | 0.00 | 56 | 1010.9 |
| 20260505004123 | 18 | 334 | 0.0 | 0.0 | 0.00 | 0.00 | 0.00 | 56 | 1010.9 |
| 20260505003620 | 18 | 254 | 4.8 | 6.4 | 0.00 | 0.00 | 0.00 | 55 | 1010.9 |
| 20260505003118 | 18 | 44 | 0.0 | 0.0 | 0.00 | 0.00 | 0.00 | 57 | 1010.9 |
| 20260505002614 | 18 | 318 | 0.0 | 4.8 | 0.00 | 0.00 | 0.00 | 56 | 1011.0 |
| 20260505002112 | 18 | 100 | 0.0 | 1.6 | 0.00 | 0.00 | 0.00 | 57 | 1010.7 |
| 20260505001609 | 18 | 130 | 0.0 | 9.7 | 0.00 | 0.00 | 0.00 | 57 | 1010.8 |
| 20260505001107 | 18 | 239 | 0.0 | 0.0 | 0.00 | 0.00 | 0.00 | 58 | 1010.8 |
| 20260505000603 | 18 | 59 | 0.0 | 3.2 | 0.00 | 0.00 | 0.00 | 57 | 1010.7 |
| 20260504235557 | 19 | 132 | 3.2 | 4.8 | 0.00 | 0.00 | 0.00 | 54 | 1010.6 |
| 20260504235054 | 19 | 162 | 1.6 | 4.8 | 0.00 | 0.00 | 0.00 | 54 | 1010.8 |
| 20260504234551 | 19 | 83 | 0.0 | 3.2 | 0.00 | 0.00 | 0.00 | 56 | 1010.7 |
| 20260504234049 | 20 | 131 | 0.0 | 0.0 | 0.00 | 0.00 | 0.00 | 55 | 1010.9 |
| 20260504233544 | 20 | 84 | 3.2 | 3.2 | 0.00 | 0.00 | 0.00 | 53 | 1010.7 |
| 20260504233041 | 20 | 52 | 0.0 | 1.6 | 0.00 | 0.00 | 0.00 | 54 | 1010.7 |
| 20260504232538 | 20 | 44 | 3.2 | 3.2 | 0.00 | 0.00 | 0.00 | 52 | 1010.7 |
| 20260504232036 | 20 | 334 | 0.0 | 3.2 | 0.00 | 0.00 | 0.00 | 52 | 1010.7 |
| 20260504231532 | 20 | 286 | 1.6 | 3.2 | 0.00 | 0.00 | 0.00 | 53 | 1010.8 |
| 20260504231028 | 21 | 250 | 3.2 | 4.8 | 0.00 | 0.00 | 0.00 | 50 | 1010.6 |
| 20260504230524 | 21 | 249 | 6.4 | 11.3 | 0.00 | 0.00 | 0.00 | 48 | 1010.8 |
| 20260504230023 | 21 | 290 | 1.6 | 11.3 | 0.00 | 0.00 | 0.00 | 48 | 1010.7 |
| 20260504225520 | 21 | 331 | 8.0 | 11.3 | 0.00 | 0.00 | 0.00 | 51 | 1010.6 |
| 20260504225017 | 21 | 92 | 0.0 | 1.6 | 0.00 | 0.00 | 0.00 | 52 | 1010.7 |
| 20260504224514 | 20 | 306 | 3.2 | 12.9 | 0.00 | 0.00 | 0.00 | 51 | 1010.9 |
| 20260504224011 | 21 | 329 | 6.4 | 9.7 | 0.00 | 0.00 | 0.00 | 49 | 1010.7 |
| 20260504223507 | 21 | 275 | 12.9 | 16.1 | 0.00 | 0.00 | 0.00 | 48 | 1010.7 |
| 20260504223003 | 21 | 338 | 4.8 | 11.3 | 0.00 | 0.00 | 0.00 | 49 | 1010.8 |
| 20260504222500 | 21 | 65 | 9.7 | 17.7 | 0.00 | 0.00 | 0.00 | 49 | 1010.9 |
| 20260504221958 | 21 | 309 | 3.2 | 20.9 | 0.00 | 0.00 | 0.00 | 49 | 1010.9 |
| 20260504221455 | 21 | 7 | 0.0 | 1.6 | 0.00 | 0.00 | 0.00 | 51 | 1010.8 |
| 20260504220952 | 21 | 241 | 4.8 | 11.3 | 0.00 | 0.00 | 0.00 | 48 | 1010.7 |
| 20260504220448 | 21 | 316 | 3.2 | 11.3 | 0.00 | 0.00 | 0.00 | 49 | 1010.6 |
| 20260504215945 | 21 | 266 | 1.6 | 9.7 | 0.00 | 0.00 | 0.00 | 47 | 1010.5 |
| 20260504215442 | 21 | 61 | 3.2 | 6.4 | 0.00 | 0.00 | 0.00 | 50 | 1010.5 |
| 20260504214938 | 21 | 271 | 11.3 | 14.5 | 0.00 | 0.00 | 0.00 | 49 | 1010.6 |
| 20260504214435 | 22 | 321 | 9.7 | 16.1 | 0.00 | 0.00 | 0.00 | 48 | 1010.5 |
| 20260504213932 | 22 | 301 | 8.0 | 22.5 | 0.00 | 0.00 | 0.00 | 48 | 1010.2 |
| 20260504213427 | 22 | 320 | 6.4 | 16.1 | 0.00 | 0.00 | 0.00 | 47 | 1010.1 |
| 20260504212925 | 22 | 329 | 6.4 | 14.5 | 0.00 | 0.00 | 0.00 | 46 | 1010.2 |
| 20260504212421 | 23 | 325 | 3.2 | 9.7 | 0.00 | 0.00 | 0.00 | 48 | 1010.4 |
| 20260504211919 | 23 | 134 | 3.2 | 6.4 | 0.00 | 0.00 | 0.00 | 45 | 1010.2 |
| 20260504211415 | 22 | 20 | 6.4 | 12.9 | 0.00 | 0.00 | 0.00 | 46 | 1010.3 |
| 20260504210912 | 22 | 306 | 1.6 | 9.7 | 0.00 | 0.00 | 0.00 | 46 | 1010.3 |
| 20260504210409 | 21 | 63 | 3.2 | 9.7 | 0.00 | 0.00 | 0.00 | 47 | 1010.3 |
| 20260504205906 | 22 | 192 | 3.2 | 4.8 | 0.00 | 0.00 | 0.00 | 48 | 1010.3 |
| 20260504205404 | 23 | 221 | 4.8 | 12.9 | 0.00 | 0.00 | 0.00 | 43 | 1010.3 |
| 20260504204902 | 22 | 4 | 3.2 | 12.9 | 0.00 | 0.00 | 0.00 | 47 | 1010.2 |
| 20260504204400 | 23 | 313 | 8.0 | 14.5 | 0.00 | 0.00 | 0.00 | 49 | 1010.0 |
| 20260504203859 | 23 | 357 | 4.8 | 9.7 | 0.00 | 0.00 | 0.00 | 45 | 1010.2 |
| 20260504203356 | 23 | 249 | 8.0 | 12.9 | 0.00 | 0.00 | 0.00 | 44 | 1010.1 |
| 20260504202852 | 23 | 344 | 3.2 | 6.4 | 0.00 | 0.00 | 0.00 | 45 | 1010.2 |
| 20260504202349 | 22 | 266 | 6.4 | 11.3 | 0.00 | 0.00 | 0.00 | 45 | 1010.4 |
| 20260504201845 | 22 | 313 | 12.9 | 20.9 | 0.00 | 0.00 | 0.00 | 48 | 1010.2 |
| 20260504201343 | 23 | 276 | 6.4 | 9.7 | 0.00 | 0.00 | 0.00 | 45 | 1010.4 |
| 20260504200840 | 22 | 333 | 4.8 | 6.4 | 0.00 | 0.00 | 0.00 | 50 | 1010.2 |
| 20260504200337 | 21 | 30 | 4.8 | 12.9 | 0.00 | 0.00 | 0.00 | 48 | 1010.4 |
| 20260504195833 | 21 | 174 | 0.0 | 11.3 | 0.00 | 0.00 | 0.00 | 48 | 1010.6 |
| 20260504195329 | 22 | 24 | 0.0 | 14.5 | 0.00 | 0.00 | 0.00 | 47 | 1010.8 |
| 20260504194826 | 22 | 287 | 3.2 | 11.3 | 0.00 | 0.00 | 0.00 | 46 | 1010.7 |
| 20260504194322 | 22 | 317 | 9.7 | 16.1 | 0.00 | 0.00 | 0.00 | 50 | 1010.5 |
| 20260504193818 | 22 | 174 | 3.2 | 12.9 | 0.00 | 0.00 | 0.00 | 47 | 1010.5 |
| 20260504193315 | 22 | 118 | 6.4 | 11.3 | 0.00 | 0.00 | 0.00 | 50 | 1010.6 |
| 20260504192814 | 22 | 323 | 3.2 | 9.7 | 0.00 | 0.00 | 0.00 | 50 | 1010.8 |
| 20260504192312 | 22 | 26 | 6.4 | 11.3 | 0.00 | 0.00 | 0.00 | 46 | 1010.7 |
| 20260504191810 | 21 | 75 | 1.6 | 12.9 | 0.00 | 0.00 | 0.00 | 53 | 1010.7 |
| 20260504191307 | 21 | 338 | 6.4 | 17.7 | 0.00 | 0.00 | 0.00 | 48 | 1010.9 |
| 20260504190808 | 21 | 22 | 3.2 | 9.7 | 0.00 | 0.00 | 0.00 | 51 | 1011.2 |
| 20260504190304 | 21 | 92 | 4.8 | 12.9 | 0.00 | 0.00 | 0.00 | 50 | 1010.7 |
| 20260504185800 | 21 | 328 | 8.0 | 17.7 | 0.00 | 0.00 | 0.00 | 47 | 1010.9 |
| 20260504185258 | 21 | 145 | 6.4 | 12.9 | 0.00 | 0.00 | 0.00 | 47 | 1011.4 |
| 20260504184754 | 21 | 339 | 6.4 | 9.7 | 0.00 | 0.00 | 0.00 | 47 | 1011.2 |
| 20260504184249 | 21 | 245 | 6.4 | 17.7 | 0.00 | 0.00 | 0.00 | 50 | 1011.2 |
| 20260504183745 | 21 | 314 | 4.8 | 12.9 | 0.00 | 0.00 | 0.00 | 50 | 1011.5 |
| 20260504183242 | 21 | 341 | 11.3 | 14.5 | 0.00 | 0.00 | 0.00 | 49 | 1011.5 |
| 20260504182741 | 21 | 124 | 9.7 | 16.1 | 0.00 | 0.00 | 0.00 | 49 | 1011.3 |
| 20260504182238 | 21 | 50 | 12.9 | 14.5 | 0.00 | 0.00 | 0.00 | 49 | 1011.4 |
| 20260504181735 | 21 | 40 | 6.4 | 12.9 | 0.00 | 0.00 | 0.00 | 49 | 1011.5 |
| 20260504181232 | 20 | 298 | 9.7 | 12.9 | 0.00 | 0.00 | 0.00 | 54 | 1011.5 |
| 20260504180731 | 20 | 118 | 1.6 | 12.9 | 0.00 | 0.00 | 0.00 | 49 | 1011.6 |
| 20260504180230 | 21 | 314 | 8.0 | 11.3 | 0.00 | 0.00 | 0.00 | 50 | 1011.4 |
| 20260504175727 | 21 | 8 | 6.4 | 9.7 | 0.00 | 0.00 | 0.00 | 50 | 1011.6 |
| 20260504175223 | 21 | 316 | 3.2 | 6.4 | 0.00 | 0.00 | 0.00 | 53 | 1011.8 |
| 20260504174722 | 20 | 349 | 4.8 | 4.8 | 0.00 | 0.00 | 0.00 | 50 | 1011.8 |
| 20260504174219 | 20 | 40 | 1.6 | 9.7 | 0.00 | 0.00 | 0.00 | 54 | 1012.0 |
| 20260504173715 | 21 | 158 | 3.2 | 22.5 | 0.00 | 0.00 | 0.00 | 52 | 1011.7 |
| 20260504173213 | 21 | 249 | 3.2 | 4.8 | 0.00 | 0.00 | 0.00 | 50 | 1011.6 |
| 20260504172709 | 20 | 23 | 0.0 | 9.7 | 0.00 | 0.00 | 0.00 | 52 | 1011.9 |
| 20260504172205 | 20 | 2 | 6.4 | 11.3 | 0.00 | 0.00 | 0.00 | 52 | 1012.1 |
| 20260504171702 | 20 | 14 | 4.8 | 6.4 | 0.00 | 0.00 | 0.00 | 49 | 1011.9 |
| 20260504171159 | 20 | 221 | 6.4 | 12.9 | 0.00 | 0.00 | 0.00 | 49 | 1012.0 |
| 20260504170655 | 20 | 320 | 1.6 | 27.4 | 0.00 | 0.00 | 0.00 | 51 | 1012.2 |
| 20260504170153 | 20 | 143 | 8.0 | 14.5 | 0.00 | 0.00 | 0.00 | 49 | 1012.2 |
| 20260504160112 | 19 | 357 | 11.3 | 17.7 | 0.00 | 0.00 | 0.00 | 50 | 1013.0 |
| 20260504151045 | 17 | 120 | 3.2 | 4.8 | 0.00 | 0.00 | 0.00 | 51 | 1013.5 |
| 20260504150542 | 17 | 317 | 3.2 | 16.1 | 0.00 | 0.00 | 0.00 | 47 | 1013.3 |
| 20260504141008 | 15 | 320 | 6.4 | 20.9 | 0.00 | 0.00 | 0.00 | 52 | 1013.6 |
| 20260504140505 | 15 | 15 | 4.8 | 12.9 | 0.00 | 0.00 | 0.00 | 55 | 1013.6 |
| 20260504130429 | 12 | 341 | 4.8 | 12.9 | 0.00 | 0.00 | 0.00 | 58 | 1014.3 |
| 20260504110311 | 8 | 224 | 0.0 | 0.0 | 0.00 | 0.00 | 0.00 | 67 | 1015.3 |
| 20260504100229 | 8 | 82 | 0.0 | 0.0 | 0.00 | 0.00 | 0.00 | 65 | 1015.5 |
| 20260504081622 | 8 | 196 | 0.0 | 1.6 | 0.00 | 0.00 | 0.00 | 63 | 1016.0 |
| 20260504081118 | 8 | 217 | 0.0 | 0.0 | 0.00 | 0.00 | 0.00 | 63 | 1016.3 |
| 20260504080615 | 8 | 113 | 0.0 | 0.0 | 0.00 | 0.00 | 0.00 | 61 | 1016.2 |
| 20260504080111 | 8 | 96 | 0.0 | 0.0 | 0.00 | 0.00 | 0.00 | 61 | 1016.1 |